Terminal Aerodrome Forecast
Issued by NWS Brownsville, TX

Home | Current Version | Previous Version | Text Only | Print | Product List | Glossary On
Versions: 1 2 3 4 5 6 7 8 9 10 11 12 13 14 15 16 17
000
FTUS44 KBRO 032324
TAFHRL
TAF
KHRL 032324Z 0400/0424 15010KT P6SM SCT250
     FM041500 16014G20KT P6SM VCSH SCT030=

USA.gov is the U.S. government's official web portal to all federal, state and local government web resources and services.